Time,TemperatureF,DewpointF,PressureIn,WindDirection,WindDirectionDegrees,WindSpeedMPH,WindSpeedGustMPH,Humidity,HourlyPrecipIn,Conditions,Clouds,dailyrainin,SoftwareType,DateUTC
2013-06-19 00:00:00,42.0,42.0,-100.00,North,-999,-999.0,-999.0,101,-99.99,,,0.02,,2013-06-19 07:00:00,
2013-06-19 01:00:00,41.0,41.0,-100.00,SSE,156,1.0,1.0,101,-99.99,,,0.01,,2013-06-19 08:00:00,
2013-06-19 01:54:00,41.0,41.0,-100.00,SSE,156,1.0,1.0,101,-99.99,,,0.01,,2013-06-19 08:54:00,
2013-06-19 02:00:00,40.0,40.0,-100.00,SE,138,0.0,1.0,101,-99.99,,,0.01,,2013-06-19 09:00:00,
2013-06-19 03:00:00,41.0,41.0,-100.00,South,176,0.0,2.0,102,-99.99,,,0.01,,2013-06-19 10:00:00,
2013-06-19 03:53:00,41.0,41.0,-100.00,South,176,0.0,2.0,102,-99.99,,,0.01,,2013-06-19 10:53:00,
2013-06-19 04:00:00,41.0,41.0,-100.00,South,181,0.0,1.0,102,-99.99,,,0.02,,2013-06-19 11:00:00,
2013-06-19 05:00:00,41.0,41.0,-100.00,South,182,1.0,2.0,102,-99.99,,,0.00,,2013-06-19 12:00:00,
2013-06-19 06:00:00,40.0,40.0,-100.00,South,179,1.0,2.0,102,-99.99,,,0.01,,2013-06-19 13:00:00,
2013-06-19 07:00:00,40.0,40.0,-100.00,South,182,1.0,2.0,102,-99.99,,,0.01,,2013-06-19 14:00:00,
2013-06-19 07:53:00,40.0,40.0,-100.00,South,182,1.0,2.0,102,-99.99,,,0.01,,2013-06-19 14:53:00,
2013-06-19 08:00:00,40.0,40.0,-100.00,SSW,195,1.0,2.0,102,-99.99,,,-99.99,,2013-06-19 15:00:00,
2013-06-19 08:53:00,40.0,40.0,-100.00,SSW,195,1.0,2.0,102,-99.99,,,-99.99,,2013-06-19 15:53:00,
2013-06-19 09:00:00,41.0,41.0,-100.00,SSE,167,1.0,2.0,102,-99.99,,,0.01,,2013-06-19 16:00:00,
2013-06-19 10:00:00,43.0,43.0,-100.00,SE,126,1.0,3.0,101,-99.99,,,0.01,,2013-06-19 17:00:00,
2013-06-19 10:53:00,43.0,43.0,-100.00,North,-999,-999.0,-999.0,101,-99.99,,,0.01,,2013-06-19 17:53:00,
2013-06-19 11:00:00,-999.0,-99.9,-100.00,West,281,1.0,2.0,101,-99.99,,,-99.99,,2013-06-19 18:00:00,
2013-06-19 12:00:00,44.0,44.0,-100.00,East,94,1.0,2.0,101,-99.99,,,0.01,,2013-06-19 19:00:00,
2013-06-19 12:53:00,44.0,44.0,-100.00,East,94,1.0,2.0,101,-99.99,,,0.01,,2013-06-19 19:53:00,
2013-06-19 13:00:00,43.0,43.0,-100.00,WSW,250,1.0,2.0,99,-99.99,,,0.01,,2013-06-19 20:00:00,
2013-06-19 13:43:00,43.0,43.0,-100.00,WSW,250,1.0,2.0,99,-99.99,,,0.01,,2013-06-19 20:43:00,
2013-06-19 13:52:00,43.0,43.0,-100.00,WSW,250,1.0,2.0,99,-99.99,,,0.01,,2013-06-19 20:52:00,
2013-06-19 14:00:00,43.0,43.0,-100.00,North,-999,-999.0,-999.0,99,-99.99,,,0.01,,2013-06-19 21:00:00,
2013-06-19 15:00:00,45.0,44.0,-100.00,SSW,211,1.0,1.0,98,-99.99,,,0.01,,2013-06-19 22:00:00,
2013-06-19 15:53:00,45.0,44.0,-100.00,SSW,211,1.0,1.0,98,-99.99,,,0.01,,2013-06-19 22:53:00,
2013-06-19 16:00:00,45.0,45.0,-100.00,SSW,210,1.0,2.0,97,-99.99,,,0.01,,2013-06-19 23:00:00,
2013-06-19 16:43:00,45.0,45.0,-100.00,SSW,210,1.0,2.0,97,-99.99,,,0.01,,2013-06-19 23:43:00,
2013-06-19 16:52:00,45.0,45.0,-100.00,SSW,210,1.0,2.0,97,-99.99,,,0.01,,2013-06-19 23:52:00,
2013-06-19 17:00:00,44.0,44.0,-100.00,SSW,199,1.0,2.0,98,-99.99,,,-99.99,,2013-06-20 00:00:00,
2013-06-19 17:52:00,44.0,44.0,-100.00,SSW,199,1.0,2.0,98,-99.99,,,-99.99,,2013-06-20 00:52:00,
2013-06-19 18:00:00,44.0,44.0,-100.00,ESE,115,1.0,3.0,99,-99.99,,,0.02,,2013-06-20 01:00:00,
2013-06-19 19:00:00,44.0,44.0,-100.00,WSW,249,1.0,2.0,100,-99.99,,,0.02,,2013-06-20 02:00:00,
2013-06-19 20:00:00,44.0,44.0,-100.00,SSW,201,1.0,2.0,101,-99.99,,,0.02,,2013-06-20 03:00:00,
2013-06-19 20:54:00,44.0,44.0,-100.00,SSW,201,1.0,2.0,101,-99.99,,,0.02,,2013-06-20 03:54:00,
2013-06-19 21:00:00,43.0,43.0,-100.00,SSW,205,1.0,2.0,101,-99.99,,,0.02,,2013-06-20 04:00:00,
2013-06-19 21:54:00,43.0,43.0,-100.00,SSW,205,1.0,2.0,101,-99.99,,,0.02,,2013-06-20 04:54:00,
2013-06-19 22:00:00,43.0,43.0,-100.00,SSW,211,2.0,3.0,101,-99.99,,,0.02,,2013-06-20 05:00:00,
2013-06-19 23:00:00,43.0,43.0,-100.00,SSW,205,2.0,3.0,101,-99.99,,,0.02,,2013-06-20 06:00:00,